"Pseudo-MPEC" for A11eaDw

Created 2024 Nov 14 21:31:02 UT using Find_Orb

Click here for an explanation of pseudo-MPECs

 
 Astrometry: 
     A11eaDw* C2024 11 12.93074102 36 16.867-32 52 12.18   ~BD6H 18.73oVNEOCPM22
     A11eaDw  C2024 11 12.93504202 36 16.409-32 51 12.49   ~BD6H 18.67oVNEOCPM22
     A11eaDw  C2024 11 12.96169502 36 13.267-32 45 07.02   ~BD6H 18.51oVNEOCPM22
     A11eaDw  C2024 11 12.96774402 36 12.492-32 43 43.18   ~BD6H 18.36oVNEOCPM22
     A11eaDw KB2024 11 13.53434602 35 41.760-30 27 48.69   ~BDDl 17.5 GXNEOCPQ06
     A11eaDw KB2024 11 13.54197802 35 40.820-30 25 50.55   ~BDDl 18.4 GXNEOCPQ06
     A11eaDw KB2024 11 13.54961002 35 39.833-30 23 51.73   ~BDDl 18.4 GXNEOCPQ06
     A11eaDw 0B2024 11 13.80125902 35 27.557-29 14 28.31   ~BE5l 18.7 VZNEOCPM49
     A11eaDw 0B2024 11 13.81076402 35 26.460-29 11 53.67   ~BE5l 18.0 VZNEOCPM49
     A11eaDw 0B2024 11 13.82026902 35 25.303-29 09 17.93   ~BE5l 18.4 VZNEOCPM49
     A11eaDw KB2024 11 13.88789802 35 16.757-28 52 35.58   ~BEE2 17.4 GXNEOCPL34
     A11eaDw* C2024 11 13.89904202 35 14.357-28 47 06.65   ~BE0l 17.95oVNEOCPM22
     A11eaDw KB2024 11 13.92084702 35 12.665-28 43 18.55   ~BEE2 18.3 GXNEOCPL34
     A11eaDw  C2024 11 13.92962602 35 10.471-28 38 28.21   ~BE0l 18.27oVNEOCPM22
     A11eaDw  C2024 11 13.93278602 35 10.102-28 37 34.82   ~BE0l 17.91oVNEOCPM22
     A11eaDw  C2024 11 13.93788902 35 09.394-28 36 06.73   ~BE0l 18.06oVNEOCPM22
     A11eaDw |C2024 11 14.06028002 35 08.390-28 00 47.50   ~BE2H 18.3 GVNEOCP807
     A11eaDw |C2024 11 14.06272102 35 08.100-28 00 05.10   ~BE2H 18.3 GVNEOCP807
     A11eaDw |C2024 11 14.06521002 35 07.730-27 59 21.90   ~BE2H 18.3 GVNEOCP807
     A11eaDw |C2024 11 14.06757502 35 07.460-27 58 40.70   ~BE2H 18.3 GVNEOCP807
     A11eaDw KC2024 11 14.17466402 34 59.941-27 29 12.41   ~BE4V 18.38GVNEOCPI52
     A11eaDw KC2024 11 14.17552502 34 59.819-27 28 57.04   ~BE4V 18.62GVNEOCPI52
     A11eaDw KC2024 11 14.17638102 34 59.693-27 28 42.10   ~BE4V 18.05GVNEOCPI52
     A11eaDw KC2024 11 14.17723502 34 59.617-27 28 26.80   ~BE4V 18.60GVNEOCPI52

Station data:
(807) Cerro Tololo Observatory, La Serena  (S30.169133 W70.805900)  Chile.
   Observer R. Holmes. 0.61-m f/6.5 astrograph + CCD.
(I52) Steward Observatory, Mt. Lemmon Station  (N32.442570 W110.788920)
   US/Arizona.  Observers T. A. Pruyne, B. M. Africano, E. J. Christensen, G.
   A. Farneth, D. C. Fuls, A. R. Gibbs, A. D. Grauer, H. Gröller, J. A.
   Johnson, R. A. Kowalski, S. M. Larson, G. J. Leonard, D. Rankin, R. L.
   Seaman, F. C. Shelly, K. W. Wierzchoś. 1.0-m prime focus + CCD.
(L34) Galhassin Robotic Telescope, Isnello  (N37.939358 E14.020610)  Italy.
   Observer A. Nastasi. 0.40-m reflector + CCD.
(M22) ATLAS South Africa, Sutherland  (S32.380156 E20.810590)  South Africa.
   Observers L. Denneau, R. Siverd, J. Tonry, H. Weiland. Measurers L.
   Denneau, N. Erasmus, A. Fitzsimmons, A. Lawrence, J. Robinson, R. Siverd,
   J. Tonry, H. Weiland. 0.5-m reflector + CCD.
(M49) IAS Remote Observatory, Hakos  (S23.236549 E16.361720)  Namibia.
   Observers D. Husar, M. Junius. Measurer D. Husar. 0.25-m f/4.6 reflector +
   CCD.
(Q06) Tarui Observatory, Tarui  (N35.394791 E136.495470)  Japan.

Orbital elements:  A11eaDw
   Perihelion 2024 Nov 25.05394 +/- 0.0107 TT =  1:17:40 (JD 2460639.55394)
Epoch 2024 Nov 14.0 TT = JDT 2460628.5   Earth MOID: 0.0351      AutoNEOCP
M 357.44435897 +/- 0.018            (J2000 ecliptic)
n   0.23119730 +/- 0.00163          Peri.    7.39908 +/- 0.014
a   2.62914295 +/- 0.0123           Node    56.12010 +/- 0.0020
e   0.6118738 +/- 0.0018            Incl.   21.79488 +/- 0.035
P   4.26306                H 22.76  G  0.15   U  8.4
q 1.02043902 +/- 7.09e-5    Q 4.23784688 +/- 0.0246
From 24 observations 2024 Nov. 12-14 (29.9 hr); mean residual 0".52
Residuals in arcseconds: 
241112 M22  .06-  .10+    241113 M49  .41+  .65-    241114 807  .70+  .09+    
241112 M22  .52+  .90+    241113 M49  .17+  .19-    241114 807  .76+  .22+    
241112 M22  .07-  .78-    241113 L34  .55-  1.0-    241114 807  .15-  .27+    
241112 M22  1.1-  .78-    241113 M22  .53-  .49+    241114 807  .09+  .44+    
241113 Q06  .86+  .27+    241113 L34  .72-  .70+    241114 I52  .09+  .10+    
241113 Q06  .52+  .47+    241113 M22  .15-  .38-    241114 I52  .14-  .16+    
241113 Q06  .34-  1.0+    241113 M22  .30+  .97-    241114 I52  .44-  .11-    
241113 M49  .16+  .52-    241113 M22  .47-  .19-    241114 I52  .07-  .00     

Ephemerides (geocentric):
Date (UTC) HH   RA             Dec           delta  r     elong  mag " sig PA
---- --------  ------------   ------------  ------ ------ -----  --- --------
2024 11 14 22  02 33 59.279   -23 24 37.82  .05435 1.0293 136.6 18.1 .247  70
2024 11 14 23  02 33 56.021   -23 09 43.26  .05409 1.0292 136.8 18.1 .260  66
2024 11 15 00  02 33 52.747   -22 54 39.91  .05383 1.0292 137.0 18.1 .273  63
2024 11 15 01  02 33 49.456   -22 39 27.66  .05357 1.0291 137.2 18.1 .288  60
2024 11 15 02  02 33 46.149   -22 24 06.44  .05332 1.0290 137.5 18.1 .304  57
2024 11 15 03  02 33 42.826   -22 08 36.15  .05306 1.0290 137.7 18.0 .322  55
2024 11 15 04  02 33 39.486   -21 52 56.70  .05280 1.0289 137.9 18.0 .341  52
2024 11 15 05  02 33 36.129   -21 37 07.99  .05255 1.0288 138.1 18.0 .361  50
2024 11 15 06  02 33 32.755   -21 21 09.93  .05230 1.0287 138.4 18.0 .382  48
2024 11 15 07  02 33 29.364   -21 05 02.43  .05204 1.0287 138.6 18.0 .405  45
2024 11 15 08  02 33 25.956   -20 48 45.40  .05179 1.0286 138.8 18.0 .428  43
2024 11 15 09  02 33 22.531   -20 32 18.74  .05154 1.0285 139.1 17.9 .454  42
2024 11 15 10  02 33 19.088   -20 15 42.36  .05130 1.0285 139.3 17.9 .480  40
2024 11 15 11  02 33 15.627   -19 58 56.16  .05105 1.0284 139.5 17.9 .508  38
2024 11 15 12  02 33 12.149   -19 42 00.05  .05080 1.0283 139.8 17.9 .538  37
2024 11 15 13  02 33 08.652   -19 24 53.95  .05056 1.0283 140.0 17.9 .569  35
2024 11 15 14  02 33 05.138   -19 07 37.75  .05031 1.0282 140.3 17.9 .601  34
2024 11 15 15  02 33 01.605   -18 50 11.37  .05007 1.0281 140.5 17.8 .634  32
2024 11 15 16  02 32 58.053   -18 32 34.70  .04983 1.0281 140.8 17.8 .670  31
2024 11 15 17  02 32 54.483   -18 14 47.67  .04959 1.0280 141.0 17.8 .706  30
2024 11 15 18  02 32 50.894   -17 56 50.18  .04935 1.0279 141.3 17.8 .744  29
2024 11 15 19  02 32 47.286   -17 38 42.13  .04912 1.0279 141.5 17.8 .784  28
2024 11 15 20  02 32 43.659   -17 20 23.44  .04888 1.0278 141.8 17.7 .825  27
2024 11 15 21  02 32 40.013   -17 01 54.02  .04865 1.0277 142.0 17.7 .868  26
2024 11 15 22  02 32 36.347   -16 43 13.78  .04842 1.0277 142.3 17.7 .912  25
2024 11 15 23  02 32 32.661   -16 24 22.63  .04818 1.0276 142.6 17.7 .958  24
2024 11 16 00  02 32 28.955   -16 05 20.49  .04796 1.0275 142.8 17.7 1.01  23
2024 11 16 01  02 32 25.230   -15 46 07.26  .04773 1.0275 143.1 17.7 1.05  23
2024 11 16 02  02 32 21.484   -15 26 42.87  .04750 1.0274 143.4 17.6 1.11  22
2024 11 16 03  02 32 17.717   -15 07 07.23  .04728 1.0273 143.6 17.6 1.16  21
2024 11 16 04  02 32 13.930   -14 47 20.27  .04705 1.0273 143.9 17.6 1.21  20
2024 11 16 05  02 32 10.122   -14 27 21.89  .04683 1.0272 144.2 17.6 1.27  20
2024 11 16 06  02 32 06.293   -14 07 12.02  .04661 1.0271 144.5 17.6 1.33  19
2024 11 16 07  02 32 02.443   -13 46 50.59  .04639 1.0271 144.7 17.6 1.39  19
2024 11 16 08  02 31 58.572   -13 26 17.51  .04618 1.0270 145.0 17.5 1.45  18
2024 11 16 09  02 31 54.679   -13 05 32.72  .04596 1.0270 145.3 17.5 1.51  18
2024 11 16 10  02 31 50.764   -12 44 36.14  .04575 1.0269 145.6 17.5 1.58  17
2024 11 16 11  02 31 46.827   -12 23 27.71  .04554 1.0268 145.9 17.5 1.64  17
2024 11 16 12  02 31 42.867   -12 02 07.36  .04533 1.0268 146.2 17.5 1.71  16
2024 11 16 13  02 31 38.886   -11 40 35.02  .04512 1.0267 146.5 17.4 1.78  16
2024 11 16 14  02 31 34.881   -11 18 50.64  .04491 1.0266 146.8 17.4 1.86  15
2024 11 16 15  02 31 30.854   -10 56 54.15  .04471 1.0266 147.1 17.4 1.93  15
2024 11 16 16  02 31 26.804   -10 34 45.50  .04450 1.0265 147.4 17.4 2.01  14
2024 11 16 17  02 31 22.730   -10 12 24.63  .04430 1.0265 147.7 17.4 2.09  14
2024 11 16 18  02 31 18.633   -09 49 51.50  .04410 1.0264 148.0 17.4 2.17  14
2024 11 16 19  02 31 14.511   -09 27 06.07  .04391 1.0263 148.3 17.3 2.26  13
2024 11 16 20  02 31 10.366   -09 04 08.28  .04371 1.0263 148.6 17.3 2.34  13
2024 11 16 21  02 31 06.197   -08 40 58.10  .04352 1.0262 148.9 17.3 2.43  13